Roanoke, VA

6:13 AM EST on December 06, 2019 (GMT -0500)
Roanoke Regional-Woodrum

Weather History for KROA - October, 2019

Change the Weather History Date:

Monday, October 7, 2019

  Actual Average Record
Temperature  
Mean Temperature 71 °F 60 °F  
Max Temperature 79 °F 71 °F 97 °F (1941)
Min Temperature 63 °F 49 °F 27 °F (1935)
Degree Days  
Heating Degree Days 0 6  
Month to date heating degree days 8 36  
Since 1 July heating degree days 9 85  
Cooling Degree Days 6 1  
Month to date cooling degree days 71 9  
Year to date cooling degree days 1755 1195  
Growing Degree Days 21 (Base 50)    
Moisture  
Dew Point 60 °F    
Average Humidity 72    
Maximum Humidity 93    
Minimum Humidity 50    
Precipitation  
Precipitation 0.00 in 0.09 in 3.05 in (2016)
Month to date precipitation 0.18 0.64  
Year to date precipitation 32.24 32.66  
Snow  
Snow 0.00 in - - ()
Month to date snowfall 0.0  
Since 1 July snowfall T  
Since 1 September snowfall 0.0  
Snow Depth 0.00 in    
Sea Level Pressure  
Sea Level Pressure 30.13 in    
Wind  
Wind Speed 7 mph (SE)    
Max Wind Speed 14 mph    
Max Gust Speed 19 mph    
Visibility 10 miles    
Events      
T = Trace of Precipitation, MM = Missing Value Source: NWS Daily Summary

Daily Weather History Graph

Daily Weather History Graph

Search for Another Location

Airport or City:

Astronomy

Oct. 07, 2019 Rise Set
Actual Time 7:20 AM EDT 6:54 PM EDT
Civil Twilight 6:54 AM EDT 7:20 PM EDT
Nautical Twilight 6:24 AM EDT 7:50 PM EDT
Astronomical Twilight 5:53 AM EDT 8:21 PM EDT
Moon 4:06 PM EDT (10/7) 1:21 AM EDT (10/7)
Length of Visible Light 12h 26m
Length of Day
11h 34m
Waxing Gibbous, 69% of the Moon is Illuminated
Oct 7
Waxing Gibbous
Oct 13
Full
Oct 21
Last Quarter
Oct 27
New
Nov 4
First Quarter

Hourly Weather History & Observations

Time (EDT) Temp. Dew Point Humidity Pressure Visibility Wind Dir Wind Speed Gust Speed Precip Events Conditions
12:54 AM 64.9 °F 60.1 °F 84% 30.22 in 10.0 mi SE 5.8 mph - N/A   Mostly Cloudy
1:54 AM 64.0 °F 60.1 °F 87% 30.22 in 10.0 mi SSE 3.5 mph - N/A   Mostly Cloudy
2:54 AM 64.9 °F 60.1 °F 84% 30.20 in 10.0 mi ESE 5.8 mph - N/A   Overcast
3:54 AM 64.9 °F 60.1 °F 84% 30.18 in 10.0 mi ESE 3.5 mph - N/A   Overcast
4:54 AM 64.0 °F 60.1 °F 87% 30.17 in 10.0 mi East 4.6 mph - N/A   Scattered Clouds
5:54 AM 63.0 °F 60.1 °F 90% 30.17 in 10.0 mi Calm Calm - N/A   Mostly Cloudy
6:54 AM 64.9 °F 60.1 °F 84% 30.17 in 10.0 mi ESE 4.6 mph - N/A   Overcast
7:54 AM 64.9 °F 61.0 °F 87% 30.17 in 10.0 mi Calm Calm - N/A   Overcast
8:54 AM 66.0 °F 61.0 °F 84% 30.17 in 10.0 mi ESE 4.6 mph - N/A   Overcast
9:54 AM 71.1 °F 62.1 °F 73% 30.16 in 10.0 mi SSE 9.2 mph - N/A   Overcast
10:54 AM 71.1 °F 62.1 °F 73% 30.16 in 10.0 mi SSE 11.5 mph - N/A   Mostly Cloudy
11:30 AM 72.0 °F 61.0 °F 68% 30.18 in 10.0 mi South 12.7 mph - N/A   Overcast
11:54 AM 73.0 °F 60.1 °F 64% 30.14 in 10.0 mi South 11.5 mph - N/A   Overcast
12:54 PM 72.0 °F 60.1 °F 66% 30.13 in 10.0 mi SSW 8.1 mph - N/A   Overcast
1:54 PM 73.9 °F 60.1 °F 62% 30.10 in 10.0 mi SSE 8.1 mph - N/A   Overcast
2:54 PM 75.0 °F 59.0 °F 57% 30.07 in 10.0 mi SSE 9.2 mph - N/A   Overcast
3:54 PM 77.0 °F 57.9 °F 52% 30.04 in 10.0 mi SSE 8.1 mph - N/A   Mostly Cloudy
4:54 PM 77.0 °F 57.9 °F 52% 30.04 in 10.0 mi South 8.1 mph - N/A   Mostly Cloudy
5:54 PM 75.9 °F 57.9 °F 54% 30.04 in 10.0 mi SSE 6.9 mph - N/A   Mostly Cloudy
6:54 PM 73.9 °F 59.0 °F 59% 30.04 in 10.0 mi SE 4.6 mph - N/A   Mostly Cloudy
7:54 PM 73.9 °F 59.0 °F 59% 30.06 in 10.0 mi NNE 3.5 mph - N/A   Overcast
8:54 PM 71.1 °F 60.1 °F 68% 30.07 in 10.0 mi North 5.8 mph - N/A   Overcast
9:54 PM 70.0 °F 60.1 °F 71% 30.09 in 10.0 mi NNE 10.4 mph - N/A   Overcast
10:54 PM 69.1 °F 61.0 °F 75% 30.10 in 10.0 mi NNE 9.2 mph - N/A   Overcast
11:54 PM 68.0 °F 61.0 °F 78% 30.10 in 10.0 mi NNE 8.1 mph - N/A   Overcast